Data supplied by UK-AIR on 21/1/2015
All Data GMT hour ending 
Status: R =Ratified P=Provisional,P*=As supplied
,,Manchester South,,,,,,,,,,,,,,,,,,,,,,,
Date,time,"Nitric oxide",status,unit,"Nitrogen dioxide",status,unit,"Nitrogen oxides as nitrogen dioxide",status,unit,"Ozone",status,unit
 
01-01-2013,01:00,1.00241,R,ugm-3,18.86936,R,ugm-3,20.40638,R,ugm-3,58.74010,R,ugm-3
01-01-2013,02:00,0.72884,R,ugm-3,5.40409,R,ugm-3,6.52163,R,ugm-3,67.98685,R,ugm-3
01-01-2013,03:00,0.85471,R,ugm-3,5.84221,R,ugm-3,7.15275,R,ugm-3,68.10326,R,ugm-3
01-01-2013,04:00,0.78642,R,ugm-3,7.26176,R,ugm-3,8.46759,R,ugm-3,69.99918,R,ugm-3
01-01-2013,05:00,0.88870,R,ugm-3,8.26200,R,ugm-3,9.62466,R,ugm-3,65.40907,R,ugm-3
01-01-2013,06:00,0.88870,R,ugm-3,14.04731,R,ugm-3,15.40997,R,ugm-3,64.31143,R,ugm-3
01-01-2013,07:00,1.09357,R,ugm-3,18.99256,R,ugm-3,20.66934,R,ugm-3,59.42197,R,ugm-3
01-01-2013,08:00,1.09357,R,ugm-3,21.56965,R,ugm-3,23.24644,R,ugm-3,56.27874,R,ugm-3
01-01-2013,09:00,1.43564,R,ugm-3,19.46734,R,ugm-3,21.66863,R,ugm-3,56.22885,R,ugm-3
01-01-2013,10:00,11.85902,R,ugm-3,39.72215,R,ugm-3,57.90572,R,ugm-3,39.11572,R,ugm-3
01-01-2013,11:00,3.24672,R,ugm-3,21.73939,R,ugm-3,26.71763,R,ugm-3,51.68863,R,ugm-3
01-01-2013,12:00,2.73377,R,ugm-3,18.84434,R,ugm-3,23.03606,R,ugm-3,53.63444,R,ugm-3
01-01-2013,13:00,1.60621,R,ugm-3,11.79008,R,ugm-3,14.25291,R,ugm-3,60.41982,R,ugm-3
01-01-2013,14:00,1.16186,R,ugm-3,6.21276,R,ugm-3,7.99425,R,ugm-3,65.35918,R,ugm-3
01-01-2013,15:00,1.16186,R,ugm-3,6.84388,R,ugm-3,8.62538,R,ugm-3,64.21165,R,ugm-3
01-01-2013,16:00,0.99129,R,ugm-3,7.21060,R,ugm-3,8.73056,R,ugm-3,63.11401,R,ugm-3
01-01-2013,17:00,1.02528,R,ugm-3,11.36599,R,ugm-3,12.93806,R,ugm-3,58.22455,R,ugm-3
01-01-2013,18:00,0.88870,R,ugm-3,13.67916,R,ugm-3,15.04181,R,ugm-3,55.63014,R,ugm-3
01-01-2013,19:00,0.82010,R,ugm-3,14.78363,R,ugm-3,16.04109,R,ugm-3,53.33508,R,ugm-3
01-01-2013,20:00,0.82041,R,ugm-3,11.36455,R,ugm-3,12.62250,R,ugm-3,56.32863,R,ugm-3
01-01-2013,21:00,0.82041,R,ugm-3,10.47046,R,ugm-3,11.72841,R,ugm-3,56.57810,R,ugm-3
01-01-2013,22:00,0.88870,R,ugm-3,6.21084,R,ugm-3,7.57350,R,ugm-3,60.66928,R,ugm-3
01-01-2013,23:00,0.88870,R,ugm-3,6.94716,R,ugm-3,8.30981,R,ugm-3,59.12261,R,ugm-3
01-01-2013,24:00,0.95699,R,ugm-3,9.62992,R,ugm-3,11.09728,R,ugm-3,56.57810,R,ugm-3
02-01-2013,01:00,0.95793,R,ugm-3,6.51844,R,ugm-3,7.98698,R,ugm-3,58.80663,R,ugm-3
02-01-2013,02:00,0.77541,R,ugm-3,7.28854,R,ugm-3,8.47741,R,ugm-3,56.74440,R,ugm-3
02-01-2013,03:00,0.82104,R,ugm-3,10.56369,R,ugm-3,11.82284,R,ugm-3,53.53465,R,ugm-3
02-01-2013,04:00,0.99223,R,ugm-3,13.40137,R,ugm-3,14.92305,R,ugm-3,49.64304,R,ugm-3
02-01-2013,05:00,1.12912,R,ugm-3,22.33418,R,ugm-3,24.06604,R,ugm-3,37.56905,R,ugm-3
02-01-2013,06:00,1.09451,R,ugm-3,12.45659,R,ugm-3,14.13486,R,ugm-3,43.95529,R,ugm-3
02-01-2013,07:00,2.29160,R,ugm-3,17.18955,R,ugm-3,20.70310,R,ugm-3,38.46712,R,ugm-3
02-01-2013,08:00,1.23140,R,ugm-3,13.13983,R,ugm-3,15.02814,R,ugm-3,40.46282,R,ugm-3
02-01-2013,09:00,1.91523,R,ugm-3,25.17567,R,ugm-3,28.11208,R,ugm-3,28.43873,R,ugm-3
02-01-2013,10:00,1.77865,R,ugm-3,20.34039,R,ugm-3,23.06767,R,ugm-3,39.96389,R,ugm-3
02-01-2013,11:00,1.57347,R,ugm-3,13.40376,R,ugm-3,15.81633,R,ugm-3,51.83831,R,ugm-3
02-01-2013,12:00,1.91585,R,ugm-3,11.51277,R,ugm-3,14.45013,R,ugm-3,50.79057,R,ugm-3
02-01-2013,13:00,1.74466,R,ugm-3,13.92922,R,ugm-3,16.60452,R,ugm-3,46.79917,R,ugm-3
02-01-2013,14:00,21.20847,R,ugm-3,28.80177,R,ugm-3,61.32111,R,ugm-3,36.17206,R,ugm-3
02-01-2013,15:00,13.34050,R,ugm-3,42.33701,R,ugm-3,62.79240,R,ugm-3,23.59915,R,ugm-3
02-01-2013,16:00,5.78124,R,ugm-3,42.15819,R,ugm-3,51.02211,R,ugm-3,20.55571,R,ugm-3
02-01-2013,17:00,3.21554,R,ugm-3,37.52660,R,ugm-3,42.45712,R,ugm-3,18.26066,R,ugm-3
02-01-2013,18:00,3.89968,R,ugm-3,41.20673,R,ugm-3,47.18625,R,ugm-3,17.96130,R,ugm-3
02-01-2013,19:00,9.88579,R,ugm-3,53.04653,R,ugm-3,68.20463,R,ugm-3,10.92646,R,ugm-3
02-01-2013,20:00,6.67025,R,ugm-3,55.82253,R,ugm-3,66.05024,R,ugm-3,7.78323,R,ugm-3
02-01-2013,21:00,1.50487,R,ugm-3,25.06905,R,ugm-3,27.37643,R,ugm-3,21.85292,R,ugm-3
02-01-2013,22:00,1.40228,R,ugm-3,18.60576,R,ugm-3,20.75565,R,ugm-3,26.39313,R,ugm-3
02-01-2013,23:00,1.26570,R,ugm-3,11.72076,R,ugm-3,13.66194,R,ugm-3,34.42583,R,ugm-3
02-01-2013,24:00,0.99192,R,ugm-3,6.57087,R,ugm-3,8.09207,R,ugm-3,40.61250,R,ugm-3
03-01-2013,01:00,0.95876,R,ugm-3,6.15953,R,ugm-3,7.62973,R,ugm-3,40.04705,R,ugm-3
03-01-2013,02:00,1.04981,R,ugm-3,5.04071,R,ugm-3,6.64976,R,ugm-3,40.91185,R,ugm-3
03-01-2013,03:00,0.71907,R,ugm-3,5.56442,R,ugm-3,6.66726,R,ugm-3,40.56260,R,ugm-3
03-01-2013,04:00,0.92487,R,ugm-3,7.61175,R,ugm-3,9.02968,R,ugm-3,44.60390,R,ugm-3
03-01-2013,05:00,0.89057,R,ugm-3,9.23929,R,ugm-3,10.60462,R,ugm-3,43.25680,R,ugm-3
03-01-2013,06:00,1.50643,R,ugm-3,22.52208,R,ugm-3,24.83161,R,ugm-3,32.48002,R,ugm-3
03-01-2013,07:00,1.54073,R,ugm-3,23.36167,R,ugm-3,25.72408,R,ugm-3,31.38238,R,ugm-3
03-01-2013,08:00,4.04001,R,ugm-3,30.08171,R,ugm-3,36.27620,R,ugm-3,35.92260,R,ugm-3
03-01-2013,09:00,9.14177,R,ugm-3,44.25573,R,ugm-3,58.27292,R,ugm-3,17.36259,R,ugm-3
03-01-2013,10:00,10.57960,R,ugm-3,42.62819,R,ugm-3,58.85040,R,ugm-3,15.96560,R,ugm-3
03-01-2013,11:00,15.98945,R,ugm-3,40.52827,R,ugm-3,65.04518,R,ugm-3,19.20861,R,ugm-3
03-01-2013,12:00,,,,,,,,,,26.44303,R,ugm-3
03-01-2013,13:00,2.22550,R,ugm-3,18.42694,R,ugm-3,21.83922,R,ugm-3,19.80732,R,ugm-3
03-01-2013,14:00,1.98570,R,ugm-3,17.84936,R,ugm-3,20.89425,R,ugm-3,22.55141,R,ugm-3
03-01-2013,15:00,2.26011,R,ugm-3,23.72839,R,ugm-3,27.19403,R,ugm-3,21.05464,R,ugm-3
03-01-2013,16:00,2.02000,R,ugm-3,23.36119,R,ugm-3,26.45906,R,ugm-3,23.44948,R,ugm-3
03-01-2013,17:00,1.16373,R,ugm-3,12.86252,R,ugm-3,14.64698,R,ugm-3,34.92475,R,ugm-3
03-01-2013,18:00,2.32840,R,ugm-3,27.29855,R,ugm-3,30.86890,R,ugm-3,27.79012,R,ugm-3
03-01-2013,19:00,3.35493,R,ugm-3,30.18690,R,ugm-3,35.33124,R,ugm-3,22.60130,R,ugm-3
03-01-2013,20:00,1.30093,R,ugm-3,18.89980,R,ugm-3,20.89425,R,ugm-3,30.13507,R,ugm-3
03-01-2013,21:00,1.12974,R,ugm-3,13.49221,R,ugm-3,15.22446,R,ugm-3,31.78152,R,ugm-3
03-01-2013,22:00,1.12974,R,ugm-3,12.91463,R,ugm-3,14.64698,R,ugm-3,32.87916,R,ugm-3
03-01-2013,23:00,0.95886,R,ugm-3,9.81638,R,ugm-3,11.28710,R,ugm-3,35.67314,R,ugm-3
03-01-2013,24:00,0.95855,R,ugm-3,12.39013,R,ugm-3,13.85951,R,ugm-3,33.07873,R,ugm-3
04-01-2013,01:00,0.91302,R,ugm-3,11.12948,R,ugm-3,12.52955,R,ugm-3,34.59213,R,ugm-3
04-01-2013,02:00,0.77624,R,ugm-3,8.18996,R,ugm-3,9.37967,R,ugm-3,38.31744,R,ugm-3
04-01-2013,03:00,1.26663,R,ugm-3,14.64688,R,ugm-3,16.58941,R,ugm-3,31.28260,R,ugm-3
04-01-2013,04:00,1.23264,R,ugm-3,20.78888,R,ugm-3,22.67919,R,ugm-3,23.05034,R,ugm-3
04-01-2013,05:00,5.78623,R,ugm-3,26.72145,R,ugm-3,35.59373,R,ugm-3,13.37119,R,ugm-3
04-01-2013,06:00,20.47443,R,ugm-3,38.63872,R,ugm-3,70.03250,R,ugm-3,5.73764,R,ugm-3
04-01-2013,07:00,25.57589,R,ugm-3,42.05109,R,ugm-3,81.26710,R,ugm-3,10.42753,R,ugm-3
04-01-2013,08:00,5.40985,R,ugm-3,45.56818,R,ugm-3,53.86308,R,ugm-3,18.80947,R,ugm-3
04-01-2013,09:00,7.05317,R,ugm-3,47.87800,R,ugm-3,58.69290,R,ugm-3,23.89851,R,ugm-3
04-01-2013,10:00,3.35524,R,ugm-3,36.48620,R,ugm-3,41.63101,R,ugm-3,36.72088,R,ugm-3
04-01-2013,11:00,1.88311,R,ugm-3,20.15966,R,ugm-3,23.04668,R,ugm-3,44.45422,R,ugm-3
04-01-2013,12:00,2.32840,R,ugm-3,20.42120,R,ugm-3,23.99164,R,ugm-3,44.55400,R,ugm-3
04-01-2013,13:00,2.22550,R,ugm-3,22.04921,R,ugm-3,25.46159,R,ugm-3,45.30239,R,ugm-3
04-01-2013,14:00,2.60249,R,ugm-3,19.79151,R,ugm-3,23.78165,R,ugm-3,45.85121,R,ugm-3
04-01-2013,15:00,1.74622,R,ugm-3,16.58903,R,ugm-3,19.26681,R,ugm-3,44.95314,R,ugm-3
04-01-2013,16:00,2.05462,R,ugm-3,24.51586,R,ugm-3,27.66651,R,ugm-3,33.67744,R,ugm-3
04-01-2013,17:00,1.78021,R,ugm-3,29.18953,R,ugm-3,31.91886,R,ugm-3,30.38453,R,ugm-3
04-01-2013,18:00,4.86198,R,ugm-3,36.59091,R,ugm-3,44.04593,R,ugm-3,25.59485,R,ugm-3
04-01-2013,19:00,4.58788,R,ugm-3,40.26673,R,ugm-3,47.30081,R,ugm-3,21.30410,R,ugm-3
04-01-2013,20:00,4.82768,R,ugm-3,45.46347,R,ugm-3,52.86561,R,ugm-3,12.87227,R,ugm-3
04-01-2013,21:00,2.36270,R,ugm-3,32.23328,R,ugm-3,35.85622,R,ugm-3,22.05249,R,ugm-3
04-01-2013,22:00,3.93741,R,ugm-3,36.64398,R,ugm-3,42.68098,R,ugm-3,18.11098,R,ugm-3
04-01-2013,23:00,2.08829,R,ugm-3,27.61459,R,ugm-3,30.81640,R,ugm-3,22.95055,R,ugm-3
04-01-2013,24:00,0.89026,R,ugm-3,15.38224,R,ugm-3,16.74690,R,ugm-3,37.12002,R,ugm-3
05-01-2013,01:00,1.04981,R,ugm-3,16.58966,R,ugm-3,18.19935,R,ugm-3,34.25952,R,ugm-3
05-01-2013,02:00,0.95876,R,ugm-3,11.12948,R,ugm-3,12.59955,R,ugm-3,39.64791,R,ugm-3
05-01-2013,03:00,0.92456,R,ugm-3,10.07888,R,ugm-3,11.49709,R,ugm-3,41.36088,R,ugm-3
05-01-2013,04:00,0.68477,R,ugm-3,7.55916,R,ugm-3,8.60969,R,ugm-3,43.75572,R,ugm-3
05-01-2013,05:00,0.89026,R,ugm-3,7.13936,R,ugm-3,8.50470,R,ugm-3,45.00304,R,ugm-3
05-01-2013,06:00,0.82197,R,ugm-3,9.50178,R,ugm-3,10.76212,R,ugm-3,44.70368,R,ugm-3
05-01-2013,07:00,1.06176,R,ugm-3,10.70904,R,ugm-3,12.33706,R,ugm-3,45.45207,R,ugm-3
05-01-2013,08:00,1.12974,R,ugm-3,15.85463,R,ugm-3,17.58687,R,ugm-3,40.06368,R,ugm-3
05-01-2013,09:00,2.25980,R,ugm-3,25.40900,R,ugm-3,28.87397,R,ugm-3,28.13937,R,ugm-3
05-01-2013,10:00,3.90280,R,ugm-3,26.66981,R,ugm-3,32.65383,R,ugm-3,28.18926,R,ugm-3
05-01-2013,11:00,2.77337,R,ugm-3,15.53954,R,ugm-3,19.79179,R,ugm-3,40.16346,R,ugm-3
05-01-2013,12:00,2.70477,R,ugm-3,14.69948,R,ugm-3,18.84683,R,ugm-3,40.96174,R,ugm-3
05-01-2013,13:00,2.70508,R,ugm-3,11.39133,R,ugm-3,15.53945,R,ugm-3,44.90325,R,ugm-3
05-01-2013,14:00,1.67793,R,ugm-3,5.61701,R,ugm-3,8.18971,R,ugm-3,54.88175,R,ugm-3
05-01-2013,15:00,1.88311,R,ugm-3,10.02724,R,ugm-3,12.91454,R,ugm-3,48.84476,R,ugm-3
05-01-2013,16:00,1.71223,R,ugm-3,17.95359,R,ugm-3,20.57927,R,ugm-3,41.51056,R,ugm-3
05-01-2013,17:00,1.47213,R,ugm-3,18.95240,R,ugm-3,21.20924,R,ugm-3,39.31529,R,ugm-3
05-01-2013,18:00,1.43814,R,ugm-3,15.74896,R,ugm-3,17.95436,R,ugm-3,41.76002,R,ugm-3
05-01-2013,19:00,1.16436,R,ugm-3,12.28447,R,ugm-3,14.06950,R,ugm-3,46.54970,R,ugm-3
05-01-2013,20:00,1.06114,R,ugm-3,9.55485,R,ugm-3,11.18210,R,ugm-3,49.64304,R,ugm-3
05-01-2013,21:00,0.92456,R,ugm-3,8.39922,R,ugm-3,9.81715,R,ugm-3,50.64089,R,ugm-3
05-01-2013,22:00,0.92456,R,ugm-3,9.81734,R,ugm-3,11.23460,R,ugm-3,48.84476,R,ugm-3
05-01-2013,23:00,0.82197,R,ugm-3,10.23666,R,ugm-3,11.49709,R,ugm-3,46.10067,R,ugm-3
05-01-2013,24:00,0.99316,R,ugm-3,8.71431,R,ugm-3,10.23713,R,ugm-3,48.09637,R,ugm-3
06-01-2013,01:00,1.00449,R,ugm-3,10.28925,R,ugm-3,11.82958,R,ugm-3,45.56848,R,ugm-3
06-01-2013,02:00,0.91302,R,ugm-3,4.26934,R,ugm-3,5.66980,R,ugm-3,47.96332,R,ugm-3
06-01-2013,03:00,0.92456,R,ugm-3,7.08677,R,ugm-3,8.50470,R,ugm-3,40.11357,R,ugm-3
06-01-2013,04:00,3.52643,R,ugm-3,18.89980,R,ugm-3,24.30663,R,ugm-3,24.84647,R,ugm-3
06-01-2013,05:00,4.82768,R,ugm-3,24.30644,R,ugm-3,31.70887,R,ugm-3,17.06324,R,ugm-3
06-01-2013,06:00,4.79337,R,ugm-3,20.47475,R,ugm-3,27.82401,R,ugm-3,18.31055,R,ugm-3
06-01-2013,07:00,4.21120,R,ugm-3,18.21704,R,ugm-3,24.67412,R,ugm-3,18.21076,R,ugm-3
06-01-2013,08:00,7.25897,R,ugm-3,26.61578,R,ugm-3,37.74615,R,ugm-3,14.96775,R,ugm-3
06-01-2013,09:00,23.93257,R,ugm-3,39.68868,R,ugm-3,76.38477,R,ugm-3,2.79398,R,ugm-3
06-01-2013,10:00,16.77681,R,ugm-3,30.55362,R,ugm-3,56.27799,R,ugm-3,8.93076,R,ugm-3
06-01-2013,11:00,6.88167,R,ugm-3,24.88402,R,ugm-3,35.43623,R,ugm-3,19.85722,R,ugm-3
06-01-2013,12:00,4.75939,R,ugm-3,22.20652,R,ugm-3,29.50395,R,ugm-3,27.98969,R,ugm-3
06-01-2013,13:00,2.94456,R,ugm-3,12.96723,R,ugm-3,17.48188,R,ugm-3,37.56905,R,ugm-3
06-01-2013,14:00,2.67078,R,ugm-3,14.38439,R,ugm-3,18.47934,R,ugm-3,34.42583,R,ugm-3
06-01-2013,15:00,1.91710,R,ugm-3,14.64736,R,ugm-3,17.58687,R,ugm-3,36.37163,R,ugm-3
06-01-2013,16:00,1.33524,R,ugm-3,13.54480,R,ugm-3,15.59194,R,ugm-3,40.46282,R,ugm-3
06-01-2013,17:00,0.99285,R,ugm-3,10.81519,R,ugm-3,12.33706,R,ugm-3,42.75787,R,ugm-3
06-01-2013,18:00,1.09544,R,ugm-3,13.17713,R,ugm-3,14.85697,R,ugm-3,44.85336,R,ugm-3
06-01-2013,19:00,1.19834,R,ugm-3,10.55222,R,ugm-3,12.38956,R,ugm-3,47.99659,R,ugm-3
06-01-2013,20:00,0.92487,R,ugm-3,10.28877,R,ugm-3,11.70708,R,ugm-3,46.00089,R,ugm-3
06-01-2013,21:00,1.16373,R,ugm-3,14.33228,R,ugm-3,16.11692,R,ugm-3,38.66669,R,ugm-3
06-01-2013,22:00,1.02715,R,ugm-3,14.27920,R,ugm-3,15.85443,R,ugm-3,34.97464,R,ugm-3
06-01-2013,23:00,1.26663,R,ugm-3,15.43483,R,ugm-3,17.37688,R,ugm-3,30.38453,R,ugm-3
06-01-2013,24:00,1.26663,R,ugm-3,15.48695,R,ugm-3,17.42938,R,ugm-3,27.54066,R,ugm-3
07-01-2013,01:00,1.09555,R,ugm-3,11.75996,R,ugm-3,13.43952,R,ugm-3,29.13722,R,ugm-3
07-01-2013,02:00,0.95876,R,ugm-3,9.58928,R,ugm-3,11.05961,R,ugm-3,29.13722,R,ugm-3
07-01-2013,03:00,0.89057,R,ugm-3,7.08677,R,ugm-3,8.45220,R,ugm-3,32.23056,R,ugm-3
07-01-2013,04:00,0.71907,R,ugm-3,6.92947,R,ugm-3,8.03221,R,ugm-3,32.28045,R,ugm-3
07-01-2013,05:00,1.12974,R,ugm-3,9.08246,R,ugm-3,10.81461,R,ugm-3,29.43658,R,ugm-3
07-01-2013,06:00,1.23264,R,ugm-3,9.81686,R,ugm-3,11.70708,R,ugm-3,26.94195,R,ugm-3
07-01-2013,07:00,1.50674,R,ugm-3,9.60744,R,ugm-3,11.91707,R,ugm-3,27.54066,R,ugm-3
07-01-2013,08:00,2.12259,R,ugm-3,13.96460,R,ugm-3,17.21939,R,ugm-3,24.99614,R,ugm-3
07-01-2013,09:00,3.83482,R,ugm-3,20.78888,R,ugm-3,26.66905,R,ugm-3,21.00474,R,ugm-3
07-01-2013,10:00,3.56073,R,ugm-3,18.74202,R,ugm-3,24.20164,R,ugm-3,23.20001,R,ugm-3
07-01-2013,11:00,2.60187,R,ugm-3,13.33491,R,ugm-3,17.32438,R,ugm-3,28.98754,R,ugm-3
07-01-2013,12:00,2.56757,R,ugm-3,11.55007,R,ugm-3,15.48695,R,ugm-3,34.27615,R,ugm-3
07-01-2013,13:00,2.12291,R,ugm-3,10.81423,R,ugm-3,14.06950,R,ugm-3,37.71873,R,ugm-3
07-01-2013,14:00,1.95140,R,ugm-3,12.44225,R,ugm-3,15.43445,R,ugm-3,37.81852,R,ugm-3
07-01-2013,15:00,2.12259,R,ugm-3,14.54217,R,ugm-3,17.79686,R,ugm-3,34.82497,R,ugm-3
07-01-2013,16:00,2.05462,R,ugm-3,17.00882,R,ugm-3,20.15928,R,ugm-3,33.92690,R,ugm-3
07-01-2013,17:00,1.91741,R,ugm-3,21.36693,R,ugm-3,24.30663,R,ugm-3,33.47787,R,ugm-3
07-01-2013,18:00,2.36270,R,ugm-3,25.93350,R,ugm-3,29.55644,R,ugm-3,32.92905,R,ugm-3
07-01-2013,19:00,1.47213,R,ugm-3,19.84458,R,ugm-3,22.10171,R,ugm-3,38.76647,R,ugm-3
07-01-2013,20:00,1.06145,R,ugm-3,13.38654,R,ugm-3,15.01446,R,ugm-3,46.44992,R,ugm-3
07-01-2013,21:00,0.89026,R,ugm-3,10.28973,R,ugm-3,11.65458,R,ugm-3,50.59100,R,ugm-3
07-01-2013,22:00,1.02715,R,ugm-3,8.92468,R,ugm-3,10.49963,R,ugm-3,53.43487,R,ugm-3
07-01-2013,23:00,0.89057,R,ugm-3,6.77216,R,ugm-3,8.13721,R,ugm-3,55.08132,R,ugm-3
07-01-2013,24:00,0.95886,R,ugm-3,7.50704,R,ugm-3,8.97718,R,ugm-3,53.38498,R,ugm-3
08-01-2013,01:00,0.73050,R,ugm-3,4.12973,R,ugm-3,5.24981,R,ugm-3,55.28089,R,ugm-3
08-01-2013,02:00,0.91344,R,ugm-3,3.14925,R,ugm-3,4.54984,R,ugm-3,56.81093,R,ugm-3
08-01-2013,03:00,0.75337,R,ugm-3,4.25244,R,ugm-3,5.40731,R,ugm-3,55.03143,R,ugm-3
08-01-2013,04:00,0.89026,R,ugm-3,3.67439,R,ugm-3,5.03982,R,ugm-3,54.33293,R,ugm-3
08-01-2013,05:00,0.89057,R,ugm-3,5.61749,R,ugm-3,6.98225,R,ugm-3,52.48691,R,ugm-3
08-01-2013,06:00,0.95886,R,ugm-3,5.56490,R,ugm-3,7.03475,R,ugm-3,52.68648,R,ugm-3
08-01-2013,07:00,0.92487,R,ugm-3,9.50130,R,ugm-3,10.91961,R,ugm-3,48.69508,R,ugm-3
08-01-2013,08:00,1.02715,R,ugm-3,12.12716,R,ugm-3,13.70201,R,ugm-3,48.04648,R,ugm-3
08-01-2013,09:00,1.30093,R,ugm-3,16.48432,R,ugm-3,18.47934,R,ugm-3,45.55185,R,ugm-3
08-01-2013,10:00,1.78052,R,ugm-3,19.10922,R,ugm-3,21.83922,R,ugm-3,42.30884,R,ugm-3
08-01-2013,11:00,2.02000,R,ugm-3,15.90674,R,ugm-3,19.00432,R,ugm-3,43.60605,R,ugm-3
08-01-2013,12:00,2.70446,R,ugm-3,18.05974,R,ugm-3,22.20671,R,ugm-3,39.61465,R,ugm-3
08-01-2013,13:00,1.64332,R,ugm-3,13.64999,R,ugm-3,16.16942,R,ugm-3,42.95744,R,ugm-3
08-01-2013,14:00,1.67793,R,ugm-3,13.96460,R,ugm-3,16.53691,R,ugm-3,41.61035,R,ugm-3
08-01-2013,15:00,1.43783,R,ugm-3,15.33012,R,ugm-3,17.53437,R,ugm-3,39.31529,R,ugm-3
08-01-2013,16:00,2.32809,R,ugm-3,24.93661,R,ugm-3,28.50648,R,ugm-3,29.68604,R,ugm-3
08-01-2013,17:00,1.78021,R,ugm-3,31.97126,R,ugm-3,34.70126,R,ugm-3,37.81852,R,ugm-3
08-01-2013,18:00,1.81482,R,ugm-3,39.84550,R,ugm-3,42.62848,R,ugm-3,32.38023,R,ugm-3
08-01-2013,19:00,1.19803,R,ugm-3,32.91652,R,ugm-3,34.75376,R,ugm-3,43.50626,R,ugm-3
08-01-2013,20:00,1.09513,R,ugm-3,44.88685,R,ugm-3,46.56584,R,ugm-3,31.18281,R,ugm-3
08-01-2013,21:00,1.33524,R,ugm-3,34.22849,R,ugm-3,36.27620,R,ugm-3,36.62110,R,ugm-3
08-01-2013,22:00,1.30093,R,ugm-3,37.95643,R,ugm-3,39.95107,R,ugm-3,28.83787,R,ugm-3
08-01-2013,23:00,1.43814,R,ugm-3,38.37527,R,ugm-3,40.58105,R,ugm-3,27.09163,R,ugm-3
08-01-2013,24:00,1.36922,R,ugm-3,29.18953,R,ugm-3,31.28888,R,ugm-3,32.38023,R,ugm-3
09-01-2013,01:00,1.59945,R,ugm-3,32.75666,R,ugm-3,35.20874,R,ugm-3,19.69091,R,ugm-3
09-01-2013,02:00,1.18785,R,ugm-3,22.11743,R,ugm-3,23.93915,R,ugm-3,32.79600,R,ugm-3
09-01-2013,03:00,1.64519,R,ugm-3,22.04634,R,ugm-3,24.56912,R,ugm-3,28.43873,R,ugm-3
09-01-2013,04:00,1.61089,R,ugm-3,22.46662,R,ugm-3,24.93661,R,ugm-3,27.04174,R,ugm-3
09-01-2013,05:00,1.40508,R,ugm-3,20.52495,R,ugm-3,22.67919,R,ugm-3,29.53636,R,ugm-3
09-01-2013,06:00,1.74747,R,ugm-3,26.61435,R,ugm-3,29.29395,R,ugm-3,23.64905,R,ugm-3
09-01-2013,07:00,1.95358,R,ugm-3,34.90791,R,ugm-3,37.90365,R,ugm-3,17.51227,R,ugm-3
09-01-2013,08:00,11.75487,R,ugm-3,57.15363,R,ugm-3,75.17732,R,ugm-3,3.44258,R,ugm-3
09-01-2013,09:00,22.82341,R,ugm-3,67.11345,R,ugm-3,102.10885,R,ugm-3,1.14753,R,ugm-3
09-01-2013,10:00,24.91388,R,ugm-3,65.64035,R,ugm-3,103.84129,R,ugm-3,3.39269,R,ugm-3
09-01-2013,11:00,16.38079,R,ugm-3,61.60975,R,ugm-3,86.72690,R,ugm-3,9.08044,R,ugm-3
09-01-2013,12:00,19.32816,R,ugm-3,63.86316,R,ugm-3,93.49916,R,ugm-3,9.03054,R,ugm-3
09-01-2013,13:00,22.96092,R,ugm-3,67.95256,R,ugm-3,103.15882,R,ugm-3,6.83527,R,ugm-3
09-01-2013,14:00,20.18474,R,ugm-3,70.84426,R,ugm-3,101.79386,R,ugm-3,7.08474,R,ugm-3
09-01-2013,15:00,6.06593,R,ugm-3,49.75943,R,ugm-3,59.06039,R,ugm-3,19.65765,R,ugm-3
09-01-2013,16:00,27.99814,R,ugm-3,72.30350,R,ugm-3,115.23338,R,ugm-3,4.49033,R,ugm-3
09-01-2013,17:00,40.06109,R,ugm-3,77.37879,R,ugm-3,138.80504,R,ugm-3,2.44473,R,ugm-3
09-01-2013,18:00,81.42437,R,ugm-3,82.72853,R,ugm-3,207.57759,R,ugm-3,0.84817,R,ugm-3
09-01-2013,19:00,56.75028,R,ugm-3,79.14068,R,ugm-3,166.15657,R,ugm-3,3.29291,R,ugm-3
09-01-2013,20:00,8.05382,R,ugm-3,59.88898,R,ugm-3,72.23742,R,ugm-3,4.39054,R,ugm-3
09-01-2013,21:00,18.02567,R,ugm-3,66.80506,R,ugm-3,94.44413,R,ugm-3,0.54882,R,ugm-3
09-01-2013,22:00,25.90798,R,ugm-3,65.16653,R,ugm-3,104.89125,R,ugm-3,1.49678,R,ugm-3
09-01-2013,23:00,82.04116,R,ugm-3,68.97336,R,ugm-3,194.76804,R,ugm-3,0.24946,R,ugm-3
09-01-2013,24:00,96.81168,R,ugm-3,65.64513,R,ugm-3,214.08735,R,ugm-3,0.69850,R,ugm-3
10-01-2013,01:00,52.72919,R,ugm-3,60.54465,R,ugm-3,141.39495,R,ugm-3,0.53219,R,ugm-3
10-01-2013,02:00,23.11995,R,ugm-3,56.03689,R,ugm-3,91.48673,R,ugm-3,0.13305,R,ugm-3
10-01-2013,03:00,7.67620,R,ugm-3,48.28776,R,ugm-3,60.05786,R,ugm-3,1.49678,R,ugm-3
10-01-2013,04:00,2.60467,R,ugm-3,40.52492,R,ugm-3,44.51841,R,ugm-3,5.63785,R,ugm-3
10-01-2013,05:00,1.82813,R,ugm-3,31.42556,R,ugm-3,34.22878,R,ugm-3,9.28001,R,ugm-3
10-01-2013,06:00,1.74778,R,ugm-3,25.40661,R,ugm-3,28.08650,R,ugm-3,14.71829,R,ugm-3
10-01-2013,07:00,2.02187,R,ugm-3,22.93900,R,ugm-3,26.03907,R,ugm-3,18.01119,R,ugm-3
10-01-2013,08:00,7.74480,R,ugm-3,32.43313,R,ugm-3,44.30842,R,ugm-3,9.82882,R,ugm-3
10-01-2013,09:00,34.47506,R,ugm-3,50.45510,R,ugm-3,103.31631,R,ugm-3,1.59656,R,ugm-3
10-01-2013,10:00,69.91023,R,ugm-3,63.89710,R,ugm-3,171.09139,R,ugm-3,1.44688,R,ugm-3
10-01-2013,11:00,85.50273,R,ugm-3,71.27792,R,ugm-3,202.38027,R,ugm-3,2.49463,R,ugm-3
10-01-2013,12:00,57.64148,R,ugm-3,65.75223,R,ugm-3,154.13450,R,ugm-3,5.48818,R,ugm-3
10-01-2013,13:00,63.98119,R,ugm-3,67.79095,R,ugm-3,165.89408,R,ugm-3,4.88947,R,ugm-3
10-01-2013,14:00,53.76923,R,ugm-3,67.17465,R,ugm-3,149.61966,R,ugm-3,3.59226,R,ugm-3
10-01-2013,15:00,62.64502,R,ugm-3,71.36207,R,ugm-3,167.41652,R,ugm-3,2.54452,R,ugm-3
10-01-2013,16:00,67.57965,R,ugm-3,76.29058,R,ugm-3,179.91107,R,ugm-3,0.89807,R,ugm-3
10-01-2013,17:00,43.55634,R,ugm-3,69.86745,R,ugm-3,136.65262,R,ugm-3,0.24946,R,ugm-3
10-01-2013,18:00,67.99095,R,ugm-3,81.11964,R,ugm-3,185.37088,R,ugm-3,0.00000,R,ugm-3
10-01-2013,19:00,81.59587,R,ugm-3,85.82535,R,ugm-3,210.93747,R,ugm-3,0.19957,R,ugm-3
10-01-2013,20:00,73.37118,R,ugm-3,85.46963,R,ugm-3,197.97043,R,ugm-3,0.14968,R,ugm-3
10-01-2013,21:00,69.15624,R,ugm-3,85.68478,R,ugm-3,191.72315,R,ugm-3,0.14968,R,ugm-3
10-01-2013,22:00,61.27392,R,ugm-3,84.59418,R,ugm-3,178.54612,R,ugm-3,0.09979,R,ugm-3
10-01-2013,23:00,56.16779,R,ugm-3,83.13159,R,ugm-3,169.25396,R,ugm-3,0.14968,R,ugm-3
10-01-2013,24:00,53.22073,R,ugm-3,84.86719,R,ugm-3,166.47155,R,ugm-3,0.14968,R,ugm-3
11-01-2013,01:00,53.55199,R,ugm-3,84.06266,R,ugm-3,166.17407,R,ugm-3,0.06652,R,ugm-3
11-01-2013,02:00,46.19500,R,ugm-3,80.15351,R,ugm-3,150.98461,R,ugm-3,0.19957,R,ugm-3
11-01-2013,03:00,39.85560,R,ugm-3,75.75126,R,ugm-3,136.86261,R,ugm-3,0.09979,R,ugm-3
11-01-2013,04:00,10.58927,R,ugm-3,55.79097,R,ugm-3,72.02743,R,ugm-3,0.04989,R,ugm-3
11-01-2013,05:00,17.47748,R,ugm-3,54.36377,R,ugm-3,81.16210,R,ugm-3,0.14968,R,ugm-3
11-01-2013,06:00,21.58983,R,ugm-3,57.66474,R,ugm-3,90.76926,R,ugm-3,0.04989,R,ugm-3
11-01-2013,07:00,37.38844,R,ugm-3,66.82992,R,ugm-3,124.15807,R,ugm-3,0.04989,R,ugm-3
11-01-2013,08:00,54.55721,R,ugm-3,71.16413,R,ugm-3,154.81697,R,ugm-3,0.19957,R,ugm-3
11-01-2013,09:00,67.30556,R,ugm-3,73.87557,R,ugm-3,177.07618,R,ugm-3,0.39914,R,ugm-3
11-01-2013,10:00,66.68877,R,ugm-3,68.73190,R,ugm-3,170.98639,R,ugm-3,0.94796,R,ugm-3
11-01-2013,11:00,62.71331,R,ugm-3,67.05751,R,ugm-3,163.21667,R,ugm-3,1.69635,R,ugm-3
11-01-2013,12:00,83.96044,R,ugm-3,70.17775,R,ugm-3,198.91540,R,ugm-3,1.89592,R,ugm-3
11-01-2013,13:00,69.22422,R,ugm-3,66.36614,R,ugm-3,172.50884,R,ugm-3,2.19527,R,ugm-3
11-01-2013,14:00,22.54931,R,ugm-3,59.39651,R,ugm-3,93.97164,R,ugm-3,8.33205,R,ugm-3
11-01-2013,15:00,4.90064,R,ugm-3,35.84886,R,ugm-3,43.36345,R,ugm-3,29.48647,R,ugm-3
11-01-2013,16:00,23.40621,R,ugm-3,59.39508,R,ugm-3,95.28410,R,ugm-3,10.22796,R,ugm-3
11-01-2013,17:00,55.68789,R,ugm-3,81.34723,R,ugm-3,166.73405,R,ugm-3,2.09549,R,ugm-3
11-01-2013,18:00,57.19588,R,ugm-3,83.44477,R,ugm-3,171.14389,R,ugm-3,0.44903,R,ugm-3
11-01-2013,19:00,40.60928,R,ugm-3,75.80337,R,ugm-3,138.07007,R,ugm-3,0.24946,R,ugm-3
11-01-2013,20:00,68.09354,R,ugm-3,80.43736,R,ugm-3,184.84590,R,ugm-3,0.49893,R,ugm-3
11-01-2013,21:00,48.86859,R,ugm-3,68.12660,R,ugm-3,143.05739,R,ugm-3,4.29076,R,ugm-3
11-01-2013,22:00,9.66408,R,ugm-3,55.73981,R,ugm-3,70.55748,R,ugm-3,6.18667,R,ugm-3
11-01-2013,23:00,5.41453,R,ugm-3,51.02072,R,ugm-3,59.32288,R,ugm-3,10.87657,R,ugm-3
11-01-2013,24:00,4.21494,R,ugm-3,50.70755,R,ugm-3,57.17046,R,ugm-3,10.22796,R,ugm-3
12-01-2013,01:00,2.83303,R,ugm-3,45.07444,R,ugm-3,49.41824,R,ugm-3,12.10725,R,ugm-3
12-01-2013,02:00,1.37078,R,ugm-3,28.97693,R,ugm-3,31.07889,R,ugm-3,20.55571,R,ugm-3
12-01-2013,03:00,1.40508,R,ugm-3,33.22969,R,ugm-3,35.38374,R,ugm-3,18.75958,R,ugm-3
12-01-2013,04:00,1.47369,R,ugm-3,28.92465,R,ugm-3,31.18389,R,ugm-3,22.35184,R,ugm-3
12-01-2013,05:00,2.02219,R,ugm-3,28.60813,R,ugm-3,31.70887,R,ugm-3,24.34754,R,ugm-3
12-01-2013,06:00,1.95296,R,ugm-3,23.09678,R,ugm-3,26.09157,R,ugm-3,26.24346,R,ugm-3
12-01-2013,07:00,2.12446,R,ugm-3,19.21202,R,ugm-3,22.46920,R,ugm-3,32.33034,R,ugm-3
12-01-2013,08:00,3.92983,R,ugm-3,28.55299,R,ugm-3,34.57877,R,ugm-3,28.18926,R,ugm-3
12-01-2013,09:00,2.91276,R,ugm-3,22.83238,R,ugm-3,27.29903,R,ugm-3,35.52346,R,ugm-3
12-01-2013,10:00,3.15286,R,ugm-3,19.20963,R,ugm-3,24.04414,R,ugm-3,37.81852,R,ugm-3
12-01-2013,11:00,4.42074,R,ugm-3,21.36023,R,ugm-3,28.13900,R,ugm-3,42.50841,R,ugm-3
12-01-2013,12:00,3.83794,R,ugm-3,15.95408,R,ugm-3,21.83922,R,ugm-3,55.43057,R,ugm-3
12-01-2013,13:00,3.97546,R,ugm-3,16.47858,R,ugm-3,22.57419,R,ugm-3,55.58025,R,ugm-3
12-01-2013,14:00,4.21525,R,ugm-3,19.15560,R,ugm-3,25.61909,R,ugm-3,52.08777,R,ugm-3
12-01-2013,15:00,3.80364,R,ugm-3,21.99184,R,ugm-3,27.82401,R,ugm-3,48.74497,R,ugm-3
12-01-2013,16:00,3.49556,R,ugm-3,26.40158,R,ugm-3,31.76137,R,ugm-3,44.80347,R,ugm-3
12-01-2013,17:00,3.66706,R,ugm-3,27.29329,R,ugm-3,32.91632,R,ugm-3,45.70153,R,ugm-3
12-01-2013,18:00,9.59548,R,ugm-3,57.99704,R,ugm-3,72.70990,R,ugm-3,20.25636,R,ugm-3
12-01-2013,19:00,15.18151,R,ugm-3,70.37904,R,ugm-3,93.65666,R,ugm-3,10.47743,R,ugm-3